TimeMDT,TemperatureF,Dew PointF,Humidity,Sea Level PressureIn,VisibilityMPH,Wind Direction,Wind SpeedMPH,Gust SpeedMPH,PrecipitationIn,Events,Conditions,WindDirDegrees,DateUTC
12:53 AM,66.0,55.0,68,29.70,10.0,South,5.8,-,N/A,,Clear,180,2013-09-17 06:53:00
1:53 AM,61.0,54.0,78,29.70,10.0,Calm,Calm,-,N/A,,Clear,0,2013-09-17 07:53:00
2:53 AM,57.9,52.0,81,29.69,10.0,East,3.5,-,N/A,,Clear,80,2013-09-17 08:53:00
3:53 AM,54.0,51.1,90,29.69,10.0,Calm,Calm,-,N/A,,Clear,0,2013-09-17 09:53:00
4:53 AM,54.0,51.1,90,29.69,10.0,Calm,Calm,-,N/A,,Clear,0,2013-09-17 10:53:00
5:53 AM,50.0,48.0,93,29.71,10.0,Calm,Calm,-,N/A,,Clear,0,2013-09-17 11:53:00
6:53 AM,51.1,48.9,92,29.72,10.0,Calm,Calm,-,N/A,,Clear,0,2013-09-17 12:53:00
7:53 AM,54.0,51.1,90,29.73,10.0,Calm,Calm,-,N/A,,Clear,0,2013-09-17 13:53:00
8:53 AM,60.1,54.0,80,29.72,10.0,Calm,Calm,-,N/A,,Clear,0,2013-09-17 14:53:00
9:53 AM,66.0,55.0,68,29.71,10.0,WSW,4.6,-,N/A,,Clear,240,2013-09-17 15:53:00
10:53 AM,73.9,55.0,52,29.68,10.0,Calm,Calm,-,N/A,,Clear,0,2013-09-17 16:53:00
11:53 AM,81.0,54.0,39,29.67,10.0,ESE,4.6,-,N/A,,Clear,120,2013-09-17 17:53:00
12:53 PM,82.9,48.9,31,29.66,10.0,Variable,3.5,-,N/A,,Clear,0,2013-09-17 18:53:00
1:53 PM,82.9,52.0,34,29.65,10.0,SE,3.5,-,N/A,,Clear,140,2013-09-17 19:53:00
2:53 PM,86.0,48.0,27,29.65,10.0,SW,5.8,-,N/A,,Scattered Clouds,220,2013-09-17 20:53:00
3:53 PM,86.0,41.0,20,29.64,10.0,Variable,6.9,-,N/A,,Clear,0,2013-09-17 21:53:00
4:53 PM,84.9,42.1,22,29.62,10.0,North,8.1,-,N/A,,Clear,360,2013-09-17 22:53:00
5:53 PM,80.1,44.1,28,29.62,10.0,NNE,6.9,-,N/A,,Clear,30,2013-09-17 23:53:00
6:53 PM,75.9,45.0,33,29.61,10.0,North,9.2,-,N/A,,Partly Cloudy,10,2013-09-18 00:53:00
7:53 PM,73.0,45.0,37,29.61,10.0,NNE,12.7,-,N/A,,Clear,30,2013-09-18 01:53:00
8:53 PM,71.1,46.9,42,29.61,10.0,East,6.9,-,0.00,,Mostly Cloudy,90,2013-09-18 02:53:00
9:53 PM,66.9,50.0,54,29.59,10.0,SE,3.5,-,N/A,,Scattered Clouds,140,2013-09-18 03:53:00
10:53 PM,68.0,48.0,49,29.61,10.0,ENE,10.4,-,N/A,,Mostly Cloudy,70,2013-09-18 04:53:00
11:46 PM,60.8,55.4,82,29.61,9.0,ENE,12.7,-,0.02,Rain-Thunderstorm,Light Rain,70,2013-09-18 05:46:00
11:53 PM,61.0,55.9,83,29.58,10.0,ENE,5.8,-,0.02,Rain-Thunderstorm,Light Rain,70,2013-09-18 05:53:00